Regional Weather Roundup
Issued by NWS

Home | Current Version | Previous Version | Graphics & Text | Print | Product List | Glossary On
Versions: 1 2 3 4 5 6 7 8 9 10 11 12 13 14 15 16 17 18 19 20 21 22 23 24 25 26 27 28 29 30 31 32 33 34 35 36 37 38 39 40 41 42 43 44 45 46 47 48 49 50
000
ASUS45 KABQ 252110
RWRNM
NEW MEXICO REGIONAL WEATHER ROUNDUP
NATIONAL WEATHER SERVICE ALBUQUERQUE NM
300 PM MDT TUE APR 25 2017

NOTE: "FAIR" MEANS FEW OR NO CLOUDS BELOW 12,000 FEET AGL WITH NO
       SIGNIFICANT WEATHER OR OBSTRUCTIONS TO VISION.

      THIS PRODUCT IS RELEASED AS TWO VERSIONS.  ONE VERSION NEAR
      THE TOP OF THE HOUR CONTAINING PRELIMINARY DATA FROM ALBUQUERQUE
      AND OTHER STATIONS.  A FINAL VERSION WITH ADDITIONAL DATA IS
      ISSUED ABOUT 10 MINUTES AFTER THE HOUR.

NMZ501-503-504-510>518-252200-
NORTHWEST PLATEAU/NORTHCENTRAL MOUNTAINS

CITY           SKY/WX    TMP DP  RH WIND       PRES   REMARKS
FARMINGTON     HVY RAIN  44  38  79 W18G43    29.68R
LOS ALAMOS     CLOUDY    51  30  44 W16G23    29.69F
SANTA FE       PTSUNNY   54  45  71 SW15      29.66F
TAOS             N/A     52  28  40 SW15G21   29.64F
ANGEL FIRE     DRIZZLE   40  37  87 SW10G18   29.67F WCI  33

$$
NMZ402-403-502-505>509-252200-
WESTCENTRAL MOUNTAINS/SOUTHWEST MOUNTAINS

CITY           SKY/WX    TMP DP  RH WIND       PRES   REMARKS
GALLUP         RAIN      50  40  68 W14G28    29.69F
GRANTS         CLOUDY    54  36  51 W14G31    29.71F
SILVER CITY    FAIR      70  32  24 W29G44    29.72S

$$
NMZ407-409-411-412-252200-
SOUTHERN DESERTS

CITY           SKY/WX    TMP DP  RH WIND       PRES   REMARKS
DEMING         PTSUNNY   79  33  19 W28G46    29.66F HAZE
LAS CRUCES     FAIR      80  28  15 W32G51    29.66F
HOLLOMAN AFB   FAIR      79  30  16 SW24G39   29.63F
ALAMOGORDO     FAIR      79  28  15 W24G38    29.62F
T OR C         FAIR      76  29  17 W25G41    29.62F

$$
NMZ519>523-252200-
CENTRAL VALLEYS/CENTRAL HIGHLANDS

CITY           SKY/WX    TMP DP  RH WIND       PRES   REMARKS
ALBUQUERQUE    PTSUNNY   55  46  71 N8        29.69F
DOUBLE EAGLE   PTSUNNY   55  43  62 NW14G20   29.70S
MORIARTY ARPT  PTSUNNY   61  41  48 W20G32    29.69F
CLINES CORNERS CLOUDY    50  35  56 W32G39    29.69F
BELEN          PTSUNNY   64  36  35 NW24G31   29.66F
SOCORRO        CLOUDY    68  33  27 N12       29.62F

$$
NMZ524>526-539-540-252200-
SOUTHCENTRAL MOUNTAINS

CITY           SKY/WX    TMP DP  RH WIND       PRES   REMARKS
RUIDOSO        FAIR      63  23  22 W17G35    29.69F

$$
NMZ527>531-252200-
NORTHEAST HIGHLANDS/NORTHEAST PLAINS

CITY           SKY/WX    TMP DP  RH WIND       PRES   REMARKS
LAS VEGAS      FAIR      55  34  45 SW35G41   29.59F
RATON          PTSUNNY   60  31  33 S14G23    29.50F
CLAYTON        FAIR      61  39  44 E13       29.51F

$$
NMZ532>537-252200-
EASTCENTRAL PLAINS

CITY           SKY/WX    TMP DP  RH WIND       PRES   REMARKS
SANTA ROSA     FAIR      65  36  33 W28G39    29.56F
TUCUMCARI      FAIR      73  37  27 W29G38    29.46F
CANNON AFB     FAIR      73  34  23 W38G52    29.52F
CLOVIS AIRPORT PTSUNNY   73  36  25 W35G47    29.53F

$$
NMZ028-029-538-252200-
SOUTHEAST PLAINS

CITY           SKY/WX    TMP DP  RH WIND       PRES   REMARKS
ROSWELL        FAIR      83  26  12 W21G36    29.54F
ARTESIA        FAIR      82  28  14 SW36G46   29.53S
CARLSBAD       FAIR      88  25  10 W33G52    29.50F
HOBBS          SUNNY     82  25  12 SW26G38   29.54F


$$



USA.gov is the U.S. government's official web portal to all federal, state and local government web resources and services.